This demonstration page uses our WeatherBlox Daily Observations layout. Learn more.

Left ArrowRight Arrow

38.20091, -84.87328

Hourly Observations for April 20, 2020

Temp ( °F °C ) Dew Point ( °F °C ) Humidity (%) Winds ( mph kmh ) Pressure ( in mb ) Visibility ( mi km ) Precip ( " mm )
12:53 am 00:53 Mostly Clear 48 8.9 42 5.6 80 80 Calm 29.75 1008 10 16 0.00 0.00
1:53 am 01:53 Clear 45 7.2 41 5 86 86 Calm 29.75 1007 10 16 0.00 0.00
2:53 am 02:53 Clear 45 7.2 41 5 86 86 Calm 29.72 1006 10 16 0.00 0.00
3:53 am 03:53 Clear 44 6.7 40 4.4 85 85 NNW 3 6 29.70 1006 10 16 0.00 0.00
4:53 am 04:53 Clear 41 5 38 3.3 89 89 Calm 29.70 1006 10 16 0.00 0.00
5:53 am 05:53 Clear 41 5 37 2.8 86 86 N 3 6 29.71 1006 10 16 0.00 0.00
6:53 am 06:53 Clear 40 4.4 37 2.8 89 89 Calm 29.73 1007 10 16 0.00 0.00
7:53 am 07:53 Sunny 41 5 37 2.8 86 86 NNW 3 6 29.75 1007 10 16 0.00 0.00
8:53 am 08:53 Sunny 49 9.4 38 3.3 66 66 N 5 7 29.77 1008 10 16 0.00 0.00
9:53 am 09:53 Sunny 53 11.7 39 3.9 59 59 VRB 3 6 29.77 1008 10 16 0.00 0.00
10:53 am 10:53 Sunny 58 14.4 38 3.3 48 48 Calm 29.78 1008 10 16 0.00 0.00
11:53 am 11:53 Sunny 62 16.7 34 1.1 35 35 VRB 5 7 29.78 1008 10 16 0.00 0.00
12:53 pm 12:53 Sunny 64 17.8 34 1.1 33 33 VRB 3 6 29.77 1008 10 16 0.00 0.00
1:53 pm 13:53 Sunny 65 18.3 33 0.6 31 31 NW 9 15 29.77 1008 10 16 0.00 0.00
2:53 pm 14:53 Sunny 66 18.9 35 1.7 32 32 VRB 5 7 29.76 1008 10 16 0.00 0.00
3:53 pm 15:53 Sunny 65 18.3 35 1.7 33 33 VRB 3 6 29.75 1007 10 16 0.00 0.00
4:53 pm 16:53 Sunny 67 19.4 31 -0.6 26 26 W 9 15 29.74 1007 10 16 0.00 0.00
5:53 pm 17:53 Sunny 67 19.4 33 0.6 28 28 W 9 15 29.72 1007 10 16 0.00 0.00
6:53 pm 18:53 Sunny 66 18.9 35 1.7 32 32 WSW 12 19 29.71 1006 10 16 0.00 0.00
7:53 pm 19:53 Cloudy 63 17.2 34 1.1 34 34 WSW 6 9 29.71 1006 10 16 0.00 0.00
8:53 pm 20:53 Mostly Cloudy 61 16.1 34 1.1 36 36 W 3 6 29.73 1007 10 16 0.00 0.00
9:53 pm 21:53 Clear 54 12.2 35 1.7 49 49 WSW 5 7 29.75 1007 10 16 0.00 0.00
10:53 pm 22:53 Clear 53 11.7 35 1.7 51 51 SW 5 7 29.75 1007 10 16 0.00 0.00
11:53 pm 23:53 Mostly Cloudy 54 12.2 38 3.3 55 55 SW 6 9 29.73 1007 10 16 0.00 0.00

Powered by AerisWeather